Regional Weather Roundup
Issued by NWS Portland, ME

Home | Current Version | Previous Version | Text Only | Print | Product List | Glossary On
Versions: 1 2 3 4 5 6 7 8 9 10 11 12 13 14 15 16 17 18 19 20 21 22 23 24 25 26 27 28 29 30 31 32 33 34 35 36 37 38 39 40 41 42 43 44 45 46 47 48 49 50
000
ASUS41 KGYX 070510
RWRGYX
WEATHER ROUNDUP FOR MAINE AND NEW HAMPSHIRE
NATIONAL WEATHER SERVICE GRAY ME
100 AM EDT TUE JUL 07 2015

MEZ002-005-006-010-012-015-018-020-021-024-026-027-029-070600-
MAINE

CITY           SKY/WX    TMP DP  RH WIND       PRES   REMARKS
PORTLAND       CLEAR     62  59  90 CALM      30.10F
SANFORD        MOCLDY    57  54  88 CALM      30.12S
BAR HARBOR     CLEAR     59  57  94 CALM      30.12S
WISCASSET      CLEAR     59  57  93 CALM      30.12S
ROCKLAND       CLEAR     55  54  94 CALM      30.10S
FRYEBURG       PTCLDY    61  60  97 CALM      30.11S
LEWISTONAUBURN CLEAR     59  54  82 CALM      30.11R
AUGUSTA        CLEAR     62  58  86 CALM      30.11S
WATERVILLE       N/A    N/A N/A N/A MISG        N/A
BANGOR         PTCLDY    63  58  83 S5        30.10F
GREENVILLE       N/A     63  59  87 CALM      30.09F
MILLINOCKET    CLEAR     67  63  87 VRB3      30.08F
HOULTON        CLEAR     66  60  81 VRB5      30.07S
PRESQUE ISLE   CLOUDY    63  55  77 CALM      30.06S
FRENCHVILLE    PTCLDY    64  56  75 S6        30.05F
CARIBOU        MOCLDY    65  58  78 S6        30.05S
$$

NHZ002-005-008-009-011-012-014-070600-
NEW HAMPSHIRE

CITY           SKY/WX    TMP DP  RH WIND       PRES   REMARKS
PORTSMOUTH     CLEAR     65  63  91 NW1       30.09S
ROCHESTER      CLEAR     62  59  90 CALM      30.10F
NASHUA         CLEAR     68  66  93 CALM      30.11F
MANCHESTER     CLEAR     70  64  81 S3        30.09S
CONCORD        CLEAR     65  61  87 CALM      30.10S
LACONIA        PTCLDY    64  61  88 CALM      30.10F
PLYMOUTH       FOG       59  59 100 CALM      30.11S VSB 3/4
BERLIN         CLEAR     57  54  89 CALM      30.11F FOG
WHITEFIELD     CLEAR     56  53  90 CALM      30.11S
JAFFREY        CLEAR     64  62  93 CALM      30.14S
KEENE          CLEAR     64  61  88 CALM      30.11S
LEBANON        CLEAR     61  58  90 CALM      30.09F
MT WASHINGTON  FOG       50  50 100 SW31        N/A  VSB 0
$$

VTZ005-007-008-070600-
VERMONT

CITY           SKY/WX    TMP DP  RH WIND       PRES   REMARKS
ST JOHNSBURY     N/A     61  56  83 MISG      30.08S
MONTPELIER     CLEAR     58  55  90 CALM      30.13F
BURLINGTON     CLEAR     68  59  73 SE3       30.03F
$$

MAZ007-012-024-CTZ003-RIZ002-NYZ038-NYZ072-070600-
SOUTHERN NEW ENGLAND AND NY

CITY           SKY/WX    TMP DP  RH WIND       PRES   REMARKS
BOSTON         PTCLDY    69  63  81 S6        30.12R
WORCESTER      CLEAR     67  62  84 W5        30.13F
NANTUCKET      CLEAR     64  61  90 SE6       30.13F
PROVIDENCE     CLEAR     67  63  87 CALM      30.12F
HARTFORD       MOCLDY    70  63  78 S6        30.09F
ALBANY         PTCLDY    73  64  73 S9        30.06S
NEW YORK CITY  CLOUDY    75  69  81 S8        30.08S
$$

ANZ081-ANZ082-ANZ150-NHZ014-MEZ023>029-070600-
COASTAL MARINE OBSERVATIONS

STATION/POSITION TIME  TEMP    WIND        PRES    WAVE
                       AIR SEA DIR/SP/G            HT/PER
                 (UTC) (F)     (DEG/KT/KT) (MB)    (FT/S)
MOUNT DESERT ROC 0500   59     170/  7/  7 1020.4S
MATINICUS ROCK   0500   59     190/ 11/ 11 1019.5S
ISLE OF SHOALS   0500   68     200/ 10/ 11 1018.8F
JEFFREYS LEDGE   0403      62                N/A     2/ 8
CASHES LEDGE BUO 0450   61 58              1019.6F   2/ 8
GEORGES BANK BUO 0450   59 59  210/  6/  6 1021.3R   3/ 8
$$

.............KEY..............
   WCI - WIND CHILL
   TC  - TEMPERATURE IN CELSIUS
   VSB - VISIBILITY IN MILES
   HX  - HEAT INDEX
   FAIR- INDICATES FEW OR NO CLOUDS BELOW 12,000 FT, WITH NO
         SIGNIFICANT WEATHER AND/OR OBSTRUCTIONS TO VISIBILITY.




USA.gov is the U.S. government's official web portal to all federal, state and local government web resources and services.